Wind_Speed
4 2 3 4 5 5 6 6 6 5 7 8 7 4 5 6 7 7 2 9 16 11 12 15 10 12 15 16 18 16 15 15 14 13 13 13 13 14 15 16 15 14 15 20 27 30 28 31 35 35 36 36 36 38 38 37 35 35 35 34 33 30 30 32 32 30 29 29 27 26 26 23 23 24 21 19 18 16 15 14 15 16 15 15 15 14
4 4 5 7 7 6 7 7 6 7 9 9 7 5 6 6 8 10 4 9 15 10 9 12 11 13 15 15 17 17 16 17 17 16 15 16 14 13 16 17 15 13 13 18 23 27 28 30 34 35 35 36 36 37 38 38 37 37 37 37 35 31 32 34 33 32 32 31 30 29 28 26 25 25 24 23 21 18 16 14 14 15 15 15 15 15
3 4 7 8 7 7 7 7 7 9 9 8 6 4 6 6 7 10 4 8 12 8 8 13 12 12 13 14 17 19 17 15 16 18 17 17 15 14 16 16 15 13 13 16 18 23 28 30 33 35 34 37 38 38 39 39 38 38 37 38 37 33 34 35 34 34 33 31 30 30 30 28 26 24 25 24 21 20 18 15 15 15 15 15 15 15
3 5 10 10 8 8 9 9 8 7 7 6 6 4 6 7 5 6 2 3 4 7 10 13 8 6 9 10 14 17 15 12 14 16 15 15 16 16 17 16 16 16 15 16 17 20 25 28 32 33 33 35 37 38 39 39 39 39 39 39 38 36 36 37 36 35 34 31 29 30 30 28 25 22 23 25 23 23 21 18 17 16 16 15 14 14
5 8 10 9 8 8 8 8 8 6 5 6 7 7 8 9 8 7 5 5 5 4 9 12 3 1 6 10 11 11 11 11 12 14 13 13 14 14 15 16 16 17 16 16 17 18 21 25 29 33 34 35 36 37 39 40 40 40 40 41 40 38 37 38 38 36 34 31 29 30 28 26 22 16 20 26 25 25 24 21 19 17 16 16 15 14
7 10 8 7 8 9 7 8 8 6 4 6 7 10 11 12 12 10 8 4 6 4 8 13 5 4 6 10 12 10 10 11 12 14 15 13 12 12 13 14 15 16 16 16 17 17 19 24 27 31 34 34 36 37 39 42 42 41 41 42 42 40 38 39 38 37 35 32 32 32 28 26 23 17 20 27 28 27 27 24 21 18 17 17 16 15
6 10 9 8 9 10 9 8 8 7 4 5 6 9 12 11 11 11 7 2 0 1 3 7 5 4 5 7 10 11 12 12 12 14 16 14 13 13 13 14 14 15 16 16 16 16 18 23 26 28 33 35 36 38 40 41 42 42 42 42 42 41 39 39 39 38 36 34 33 33 31 30 29 24 23 26 28 29 27 24 21 19 18 17 16 16
4 7 8 7 7 8 7 7 9 8 5 5 7 8 9 8 8 9 7 4 4 1 1 1 4 4 3 7 10 10 11 11 12 14 15 16 16 16 15 15 15 16 16 15 16 16 18 23 26 29 34 36 38 39 39 40 41 42 43 43 43 42 40 40 40 40 38 36 34 34 32 32 31 29 26 25 25 27 27 25 22 20 18 17 16 16
3 2 3 2 2 4 5 8 11 9 6 6 9 9 8 7 7 5 5 5 4 3 1 3 4 4 3 7 8 10 11 13 16 17 18 18 18 18 16 16 17 17 17 17 17 17 18 24 29 32 35 36 38 40 40 41 41 43 44 44 43 42 41 41 41 41 40 38 36 35 33 32 32 31 28 25 24 26 26 26 23 20 19 18 17 17
3 2 3 2 2 4 5 8 11 10 8 7 9 10 8 7 6 2 2 3 2 5 4 6 6 3 4 4 7 8 10 14 16 16 17 18 18 17 16 17 17 16 16 17 18 17 19 27 32 33 35 36 38 40 41 41 41 43 44 44 44 43 42 42 42 42 41 39 37 35 34 33 33 32 28 25 25 27 27 27 25 22 21 20 19 19
4 3 3 2 3 4 4 6 7 10 9 7 6 7 7 6 4 1 1 2 2 1 5 7 10 8 4 3 7 10 14 19 16 13 14 16 16 16 16 16 16 16 15 16 17 16 20 28 32 33 34 35 37 39 40 40 40 42 43 45 45 44 43 43 42 42 42 41 38 37 36 35 34 34 31 27 26 29 30 29 27 25 23 22 21 21
7 4 1 4 2 2 5 6 4 4 6 5 3 0 3 5 4 3 4 2 2 4 6 6 7 7 4 4 7 14 20 21 17 16 18 19 18 17 16 16 16 16 15 16 16 15 17 21 26 30 32 34 36 37 39 39 39 41 43 44 44 43 43 44 43 42 42 42 41 39 38 37 36 35 34 32 29 31 33 31 29 27 26 24 23 24
6 3 4 4 1 7 6 5 6 4 2 1 2 3 2 2 3 2 3 1 3 5 6 6 5 4 5 5 9 17 21 18 15 15 17 20 20 19 18 17 16 15 16 16 16 15 15 15 20 27 30 33 35 37 39 40 40 41 42 44 44 43 44 44 44 44 42 42 42 41 39 38 37 36 36 36 33 33 34 33 31 30 29 28 26 27
4 5 7 6 4 7 8 5 4 6 4 1 3 3 3 2 0 2 3 2 2 5 7 3 4 2 4 5 10 17 20 17 14 13 14 17 19 19 18 16 15 15 16 15 15 16 15 15 19 26 31 32 34 38 40 40 41 41 41 43 45 45 45 44 44 45 44 42 43 43 42 39 38 37 36 37 36 35 35 34 33 32 31 30 29 29
2 3 4 6 3 6 8 6 3 6 5 3 4 4 3 4 3 3 3 2 3 4 6 2 2 3 3 4 9 15 18 16 14 14 14 15 16 16 14 14 15 15 15 14 15 17 16 17 23 28 31 32 34 38 41 40 41 41 41 43 45 44 45 44 44 45 45 45 43 43 43 41 39 38 37 37 38 37 36 35 34 32 31 31 30 29
2 3 4 3 2 3 9 9 7 6 5 3 1 4 2 4 4 2 3 4 3 1 4 2 1 4 5 6 7 9 12 13 14 15 14 14 14 13 12 13 15 15 15 15 16 18 18 20 25 29 31 33 35 38 40 40 42 42 42 43 44 44 45 44 44 44 45 46 44 43 43 42 40 38 37 38 39 39 38 36 35 34 32 31 30 30
2 4 6 6 1 5 11 12 6 6 5 4 2 1 5 5 6 2 3 2 3 1 4 3 3 4 3 6 6 6 9 11 14 15 15 15 15 15 14 14 15 15 16 16 16 18 18 19 24 29 32 34 35 37 40 42 44 44 43 43 44 43 44 44 44 44 44 44 44 44 44 43 41 39 38 39 40 40 39 38 36 34 33 32 31 30
0 4 5 6 5 7 14 12 1 6 6 3 2 7 8 3 4 3 1 2 2 2 4 4 4 4 3 4 7 3 8 12 14 16 17 16 16 17 16 16 17 17 17 17 17 17 17 18 22 28 33 36 38 40 42 44 45 45 45 45 44 42 43 44 44 44 43 43 43 43 43 43 43 42 41 40 41 42 41 39 38 35 33 32 32 30
2 3 4 6 7 10 12 8 4 8 12 6 2 7 5 2 2 2 1 1 0 1 3 4 4 3 2 4 8 8 7 11 15 17 17 16 17 17 17 18 20 19 17 17 16 15 15 17 21 27 31 36 39 40 42 43 42 42 43 44 45 44 44 44 43 43 42 42 42 42 43 44 44 43 42 41 40 41 41 41 40 38 35 33 33 32
3 3 4 4 8 8 7 6 5 10 14 11 8 7 5 1 1 1 1 3 2 2 2 3 3 3 4 5 7 11 11 8 11 16 17 17 19 18 17 18 18 18 17 17 17 16 16 18 23 29 31 34 38 39 40 40 40 41 42 42 44 44 44 44 44 43 42 42 42 41 42 43 43 43 42 41 40 40 41 42 41 40 39 37 35 34
4 4 4 6 7 4 3 5 5 5 8 9 8 7 7 6 2 1 2 1 1 2 2 1 3 3 3 5 8 11 13 13 9 10 16 17 20 21 19 19 19 18 18 17 16 16 17 18 24 30 32 33 36 36 37 38 39 40 41 41 43 43 43 44 44 44 43 43 42 41 41 42 42 42 41 41 40 40 41 42 41 41 41 39 38 37
3 2 3 6 6 3 3 3 6 5 4 1 3 6 7 7 4 3 4 4 2 0 3 3 4 3 3 7 10 14 14 17 18 8 14 18 19 20 19 20 20 19 19 18 16 17 16 16 21 27 29 30 31 33 34 36 37 38 39 40 42 42 43 44 44 44 43 43 42 43 43 42 42 42 41 40 39 40 40 40 40 41 40 39 39 39
3 1 2 4 5 6 5 5 5 3 1 3 6 7 7 6 5 3 3 4 4 4 3 2 4 4 3 9 12 13 13 16 20 10 12 16 16 18 18 19 19 18 19 18 17 16 15 15 20 25 26 27 29 31 33 35 36 37 39 40 40 41 43 44 44 43 43 42 42 43 43 42 42 42 41 40 39 39 40 40 39 39 39 39 39 39
4 2 3 4 6 6 4 2 2 8 8 5 5 7 7 6 6 4 4 3 3 3 3 3 4 3 7 12 12 13 14 16 19 13 6 15 15 17 18 16 17 17 18 17 16 15 14 15 18 20 21 24 26 29 33 34 35 36 37 38 40 41 42 43 42 42 42 41 42 42 42 41 41 41 41 40 40 39 39 39 39 38 38 39 39 38
3 2 3 4 5 7 5 3 4 8 9 4 4 7 8 8 10 8 3 2 1 1 3 1 3 4 9 12 13 15 18 19 20 19 7 4 10 14 16 15 16 17 16 16 17 16 15 16 16 16 19 24 26 28 31 33 34 35 37 38 39 39 41 41 41 41 41 41 40 40 41 42 41 41 41 41 40 40 40 39 38 37 37 38 38 38
0 1 3 3 1 3 3 2 3 6 7 5 6 9 9 10 12 8 3 4 2 2 4 1 3 7 12 14 16 16 19 20 21 22 17 9 3 3 8 10 12 13 14 17 17 16 16 15 15 15 19 23 26 28 30 31 33 34 35 37 37 38 39 40 40 40 40 40 40 39 40 41 41 41 42 42 41 41 40 39 38 37 37 38 38 37
1 2 2 4 4 4 5 4 3 5 7 8 10 11 9 9 10 7 3 2 3 4 6 3 1 8 16 16 16 15 17 20 21 22 20 16 12 10 8 5 4 3 2 7 9 10 12 14 15 17 20 24 28 29 29 31 33 34 34 35 36 37 38 38 39 39 39 39 39 39 40 41 41 41 41 42 42 41 40 39 38 38 38 38 38 38
2 2 1 3 4 5 6 6 6 7 8 10 12 12 9 9 9 7 4 4 4 4 5 4 3 9 14 14 12 11 14 16 16 19 20 17 15 15 16 15 14 14 13 11 8 4 1 6 9 11 15 22 27 30 31 32 33 33 33 33 33 35 36 37 37 38 38 38 38 39 40 40 40 40 40 40 40 40 39 39 39 39 38 38 38 38
3 1 3 2 4 5 5 5 6 7 8 10 11 10 9 9 9 8 7 7 5 3 6 8 9 9 11 11 9 8 9 11 11 14 16 17 18 18 19 19 18 18 17 16 15 13 10 7 3 1 4 10 17 22 25 28 31 31 30 30 32 33 34 36 37 37 36 37 38 38 39 39 38 38 39 39 39 39 39 39 38 38 38 38 39 39
3 1 3 3 5 6 6 6 7 9 9 9 9 9 9 9 10 11 10 8 8 7 9 10 10 7 7 8 8 6 6 7 8 10 15 18 20 20 20 19 18 18 17 15 14 14 13 13 11 8 6 4 6 12 16 18 22 26 27 28 29 30 32 34 35 35 36 35 36 37 36 37 37 37 37 38 38 39 39 38 38 38 38 39 39 39
3 1 3 3 3 5 6 6 8 10 11 11 9 9 10 10 9 11 10 8 7 8 8 9 7 4 6 8 7 6 6 7 10 12 13 16 18 19 20 19 17 17 16 15 14 14 13 14 14 12 11 10 7 3 11 16 19 22 23 25 26 25 27 31 33 33 35 35 34 35 35 36 36 36 37 37 38 38 39 38 38 37 37 38 39 39
2 1 2 4 2 3 4 7 9 11 12 12 7 6 9 9 7 7 9 8 8 7 8 8 5 2 4 7 6 6 9 10 11 11 11 11 15 17 17 16 16 15 14 14 14 14 14 14 13 12 12 15 16 12 2 9 18 23 24 25 29 29 28 31 35 35 36 36 35 35 36 36 36 36 37 37 38 38 38 38 38 37 37 37 38 38
2 1 1 2 1 2 3 6 8 9 9 7 4 3 6 7 7 9 9 7 7 5 3 3 3 3 4 5 5 7 9 9 8 9 10 10 12 14 13 13 13 13 13 13 13 14 14 12 12 12 12 14 17 16 14 9 4 16 25 28 30 33 32 33 36 37 37 37 37 37 37 37 37 37 37 38 38 38 38 38 38 38 38 37 37 37
3 4 1 1 1 2 3 5 6 6 4 4 2 4 7 9 12 12 7 5 6 5 2 2 2 4 5 5 5 4 4 5 5 7 9 9 9 10 11 11 11 12 13 13 13 14 12 12 14 16 16 17 20 19 16 17 17 10 17 28 30 32 33 32 32 34 36 38 38 38 38 38 38 38 38 38 38 37 37 38 38 39 38 37 36 36
2 3 2 1 2 1 2 5 4 4 5 3 4 7 8 9 11 10 4 6 9 8 7 6 6 8 8 7 6 2 4 4 5 9 11 11 8 8 8 9 10 11 12 12 12 12 12 14 18 21 21 20 21 24 19 15 18 18 15 19 28 33 33 30 28 27 31 35 37 38 38 38 38 38 38 38 37 37 37 38 38 39 38 37 36 37
4 3 2 1 1 0 2 2 2 5 7 9 9 7 6 5 7 7 4 5 9 9 8 8 7 8 9 8 8 6 2 5 5 9 11 11 10 9 9 9 10 11 10 10 11 11 13 16 17 19 23 22 19 21 23 19 15 16 22 25 23 26 26 26 26 26 27 31 35 36 38 38 38 37 37 37 37 37 38 38 38 38 38 37 36 36
5 3 1 1 1 1 1 3 3 6 10 10 5 3 3 2 4 5 2 2 4 7 8 8 8 9 11 9 11 12 5 3 3 7 9 11 12 10 8 8 10 10 11 12 12 12 14 17 17 17 20 21 20 19 22 23 19 13 17 27 28 22 19 20 23 25 26 29 33 36 37 38 38 37 37 37 37 38 38 38 38 38 37 37 36 35
4 4 3 2 2 2 2 3 2 4 5 3 2 5 6 4 3 3 3 2 3 8 10 9 8 10 12 11 13 13 6 2 3 5 7 10 11 10 9 8 9 11 12 14 15 15 15 16 17 18 19 20 21 22 24 25 24 18 15 21 27 22 17 19 23 24 25 27 31 35 37 38 38 37 37 37 38 38 38 37 37 37 37 37 36 36
4 2 4 3 1 2 2 3 3 4 4 1 4 8 9 8 5 3 2 2 3 8 10 9 8 9 10 11 12 10 6 4 4 4 6 8 9 9 9 9 10 13 14 14 16 17 18 18 17 16 17 18 19 23 26 26 24 19 15 18 22 19 15 17 21 23 26 27 28 32 36 38 39 38 38 39 40 39 38 38 37 37 37 37 36 36
5 3 3 2 2 3 3 4 3 4 3 2 5 9 11 10 6 3 2 2 4 9 10 8 8 8 8 10 9 7 5 4 5 5 6 7 7 9 11 11 11 13 15 15 16 17 18 20 19 17 16 17 19 22 24 24 22 19 17 18 20 18 16 17 18 19 23 27 29 32 35 38 39 40 40 40 40 39 38 38 37 36 37 37 36 35
2 1 1 2 3 4 4 5 4 4 2 3 6 8 10 9 4 2 3 2 5 9 9 6 6 7 7 8 7 5 4 5 6 6 6 7 7 8 11 14 14 15 16 17 17 18 18 18 19 18 17 17 19 20 20 20 20 20 20 20 19 19 19 20 19 19 20 23 27 32 35 37 40 41 41 41 41 39 38 38 37 37 37 36 35 34
1 1 1 3 2 3 3 3 5 4 1 4 7 8 6 4 3 2 2 3 5 8 8 6 5 4 5 7 5 5 7 8 9 8 7 7 7 7 8 12 14 15 16 17 18 19 19 17 17 18 19 19 19 18 18 19 19 20 20 19 18 20 22 23 22 21 21 21 24 30 33 36 38 39 40 40 39 37 37 37 36 36 36 35 35 35
2 1 1 2 2 1 1 3 4 4 1 4 7 6 2 0 2 2 3 4 5 6 6 7 5 3 4 6 6 7 9 10 10 9 8 7 7 7 8 11 12 14 16 17 19 20 19 16 15 16 18 20 20 19 19 19 18 18 19 19 20 23 25 26 26 24 22 23 25 28 33 36 37 38 38 38 38 37 36 35 35 35 35 35 34 33
2 3 2 2 1 2 2 4 4 3 2 2 2 2 2 4 3 2 3 4 5 4 4 6 6 5 5 5 6 7 9 10 9 9 9 8 7 7 9 11 13 15 16 17 19 21 20 17 15 16 18 19 20 20 20 20 19 19 19 20 23 27 28 29 30 27 24 24 25 28 32 35 37 38 37 37 37 37 35 34 35 34 34 34 33 32
3 4 3 2 2 3 4 6 5 3 3 2 2 3 6 7 4 2 2 4 4 4 4 5 7 8 7 6 6 6 7 9 9 8 9 9 8 7 8 11 14 16 18 18 19 21 21 19 17 18 19 20 21 21 21 21 21 19 19 22 25 27 28 29 30 29 26 25 26 28 31 33 35 37 38 37 37 37 36 34 34 32 32 32 32 31
3 2 2 2 2 4 5 7 7 5 4 5 5 5 5 5 3 2 3 4 4 5 5 5 7 9 9 8 8 6 6 8 8 8 8 9 8 7 8 10 13 16 18 19 20 21 21 20 18 18 19 20 22 23 22 23 22 21 22 24 26 26 27 27 27 28 27 25 26 28 30 31 33 35 36 37 37 38 37 36 34 33 32 32 32 32
1 1 2 2 1 2 3 4 3 2 5 7 7 5 5 5 5 4 4 5 5 6 6 7 8 9 9 9 9 8 8 8 7 8 7 8 8 7 6 8 12 14 16 16 18 20 20 18 18 18 18 19 23 24 24 24 25 24 25 26 27 27 27 26 26 27 28 25 25 28 29 30 32 33 34 35 36 35 35 35 35 33 32 32 32 32
2 3 2 3 3 3 5 7 5 5 8 7 4 3 4 7 9 9 7 7 7 7 7 7 8 8 7 8 9 10 9 8 7 7 7 7 7 6 6 8 12 13 14 15 17 19 17 16 17 18 17 19 22 24 25 26 27 27 27 28 28 29 28 26 25 26 28 26 24 26 28 30 32 32 32 33 34 33 33 33 33 33 34 36 35 32
4 4 2 2 3 4 7 8 6 7 8 5 3 4 6 7 9 11 11 10 9 9 8 8 7 7 7 8 9 10 10 9 7 7 7 7 6 6 7 9 11 13 14 14 16 17 16 15 16 17 17 19 22 23 25 27 28 28 29 29 31 31 29 27 26 25 26 27 22 24 28 29 31 32 31 32 33 33 34 36 37 37 37 38 39 38
4 3 2 2 1 4 5 4 2 4 6 6 6 7 8 8 9 11 12 11 10 9 8 8 8 9 9 10 10 9 10 10 8 7 7 7 7 8 9 10 10 11 13 14 17 19 17 15 17 18 17 21 23 23 24 27 28 29 32 34 35 34 30 27 26 23 23 25 21 19 25 26 28 31 31 31 31 30 31 34 37 38 37 36 38 39
5 6 6 5 4 5 6 5 3 3 5 8 8 8 8 8 9 10 11 11 10 10 10 9 9 8 7 10 12 11 9 9 11 10 7 7 10 12 11 10 9 8 11 13 16 19 18 17 18 18 18 21 24 23 24 27 28 29 33 35 35 34 29 26 24 22 20 21 18 12 17 22 25 28 30 31 31 31 32 32 33 34 35 34 35 36
Wind_Direction
173 203 238 221 230 218 231 230 197 244 281 280 286 293 288 289 276 268 245 182 179 175 196 193 178 176 175 171 170 170 171 175 177 175 173 172 173 175 175 178 180 180 183 182 182 182 177 173 173 173 173 174 174 176 177 178 180 182 182 185 187 189 186 181 179 180 182 183 184 187 188 189 189 186 188 193 196 195 192 191 190 188 185 183 179 177
163 195 233 228 229 226 233 235 218 233 255 270 275 285 290 276 272 276 261 183 182 183 199 190 177 180 176 170 171 170 172 178 180 180 178 175 173 175 178 180 178 176 177 178 182 183 179 174 172 172 172 173 173 175 177 178 180 181 183 185 187 188 185 183 183 183 184 185 184 186 187 189 189 187 189 194 199 200 197 197 196 193 190 189 187 184
177 222 237 230 228 233 242 236 228 231 237 253 259 271 277 267 280 281 254 165 182 201 200 187 183 184 177 170 173 176 177 181 183 181 180 177 173 175 179 181 177 172 172 176 180 182 181 175 172 172 174 174 174 175 177 178 179 180 182 185 187 187 186 184 184 186 186 185 185 185 183 186 188 189 193 196 200 201 201 201 199 196 193 192 191 189
184 244 236 227 222 223 238 240 230 231 234 239 244 252 256 257 273 272 278 99 189 229 199 182 178 173 174 174 179 183 179 175 182 184 184 182 177 177 179 179 177 174 173 176 178 180 179 176 172 174 175 174 174 175 177 178 178 180 183 185 186 187 186 184 184 188 187 185 187 185 183 186 185 188 196 199 200 201 202 202 201 200 197 194 192 191
202 233 229 224 229 226 232 242 234 228 240 240 232 234 246 255 250 244 279 333 330 278 166 142 83 322 185 184 187 188 178 172 180 183 187 193 185 176 175 177 179 178 176 176 177 178 178 176 174 175 175 174 175 176 177 178 178 181 183 184 185 187 186 185 186 188 188 186 186 185 186 189 187 187 193 195 196 197 200 201 200 201 201 199 195 194
223 234 223 207 225 235 236 244 236 213 229 252 235 229 236 248 251 254 273 306 357 355 145 130 106 262 221 198 191 184 181 180 181 185 188 193 188 177 175 178 180 182 180 178 178 178 178 176 174 176 176 175 177 179 179 179 180 182 184 184 185 186 187 187 187 188 188 186 185 186 189 190 191 189 185 191 196 197 199 201 199 200 202 203 200 199
223 232 223 204 211 223 228 241 239 210 208 252 241 229 233 243 253 258 266 256 69 341 156 133 139 195 220 219 206 189 185 185 185 191 190 188 187 183 181 180 180 182 181 181 182 179 178 177 174 175 177 177 179 181 180 180 181 182 183 184 185 186 187 188 188 188 188 187 186 190 192 191 193 192 186 191 198 201 202 201 200 200 202 205 205 204
230 235 226 212 207 214 221 236 238 212 193 242 248 242 242 246 255 256 253 226 197 160 54 115 115 121 188 221 218 194 185 192 197 197 193 191 191 188 187 183 180 181 181 181 183 181 180 180 178 177 179 181 181 181 180 180 181 183 183 184 186 187 188 189 189 189 190 189 188 192 195 194 195 194 189 188 193 200 203 202 201 201 203 207 209 209
269 270 245 216 205 218 214 223 230 217 205 235 247 252 258 252 255 261 254 239 192 127 268 230 128 96 230 220 206 188 187 202 207 202 195 194 194 191 190 187 183 181 180 181 184 184 182 182 182 180 181 182 181 180 181 181 182 183 183 184 186 187 189 190 191 191 192 192 191 193 196 196 197 197 193 188 189 196 201 201 203 204 205 209 211 210
256 247 268 307 247 223 221 227 224 213 216 232 238 251 268 270 270 267 222 235 146 129 217 222 165 167 261 223 180 180 197 209 210 205 198 195 195 193 193 190 186 183 181 182 184 185 184 184 183 182 181 181 181 182 182 182 182 182 183 183 186 188 190 191 192 193 194 193 192 194 196 197 197 198 197 193 190 194 199 201 203 205 207 209 211 210
282 268 253 263 234 226 254 262 224 203 215 235 240 253 272 290 307 348 109 119 104 193 229 212 185 190 253 247 178 183 205 208 204 200 198 196 195 194 196 193 189 186 185 184 184 185 186 185 183 181 181 181 181 182 182 183 183 182 183 184 186 189 190 191 193 193 195 195 195 195 197 198 198 199 200 198 194 195 198 200 202 206 208 208 210 210
319 348 289 252 256 322 299 295 281 212 208 226 227 212 283 302 336 357 4 54 174 257 246 204 175 176 213 251 199 200 213 210 200 195 193 193 194 195 196 194 192 189 187 185 184 185 184 183 182 180 181 181 180 181 182 183 183 183 184 185 186 189 190 192 193 194 195 197 198 198 199 200 200 201 202 202 200 198 198 200 203 206 208 208 210 211
322 326 319 282 26 27 353 316 319 334 31 196 207 80 74 303 326 320 325 299 207 253 242 186 133 163 217 238 207 208 218 214 205 205 196 191 192 194 195 193 192 189 187 186 185 185 184 183 182 181 181 179 179 181 183 183 183 184 186 186 187 189 191 192 193 194 196 197 199 201 201 202 202 203 203 204 203 202 200 201 203 206 207 208 207 208
330 315 342 3 20 15 17 22 346 321 342 344 191 134 129 152 240 260 270 279 242 270 263 184 123 221 255 255 212 209 220 215 205 210 205 198 195 193 194 191 189 190 189 188 186 185 185 183 184 183 181 180 180 182 183 184 184 185 186 187 188 190 192 193 193 194 196 199 201 202 203 204 204 203 204 205 205 203 202 203 206 208 208 207 206 205
13 305 345 29 338 331 13 28 313 285 299 279 198 150 136 155 164 207 222 230 240 273 293 346 110 196 208 241 214 205 216 212 203 208 202 200 200 194 190 187 188 192 190 190 189 187 186 183 183 184 183 181 181 182 184 185 185 186 187 188 189 191 192 193 194 195 197 199 202 204 204 206 206 205 204 206 206 204 204 206 208 211 210 208 207 207
57 258 294 16 286 337 8 345 323 333 322 275 189 112 140 186 164 175 200 190 185 271 306 328 233 207 203 255 243 207 215 209 203 210 202 196 196 187 185 188 191 194 190 192 192 190 188 184 182 183 184 183 182 183 185 186 187 187 189 190 191 192 192 193 195 196 198 200 202 204 206 207 208 207 205 205 206 205 206 207 209 211 212 210 209 209
45 270 306 339 335 51 8 330 340 22 338 297 7 11 250 211 147 141 261 234 123 159 274 270 266 289 306 290 267 198 200 207 204 208 203 195 186 180 186 191 192 194 193 193 194 193 190 185 183 184 184 184 183 183 186 188 189 189 189 190 191 192 192 194 196 198 200 201 202 205 207 209 209 209 208 206 206 206 206 207 209 212 213 212 212 211
9 275 323 5 6 10 349 325 6 62 26 19 340 309 296 286 110 111 245 332 56 160 266 268 254 293 335 298 286 220 187 204 208 208 206 195 181 183 190 191 192 194 194 195 195 194 193 188 186 185 185 186 185 185 188 189 190 190 190 191 192 192 193 194 196 198 201 201 203 205 208 210 211 211 211 209 207 207 208 209 210 212 214 214 214 215
2 304 319 34 19 344 345 355 15 5 11 37 306 307 323 345 10 25 134 204 254 197 268 282 266 265 225 242 281 275 232 208 204 208 209 193 183 189 191 190 194 194 191 194 193 192 194 192 189 188 187 188 188 188 189 190 190 190 191 192 192 193 195 195 197 199 201 203 204 206 208 210 212 212 212 212 210 209 209 211 212 213 215 217 217 218
15 11 289 354 19 347 346 26 19 342 348 2 2 352 350 304 281 324 223 193 182 194 243 302 315 277 244 248 271 276 275 257 212 206 208 197 187 191 192 190 194 193 191 196 192 188 190 191 192 191 189 190 190 189 189 188 188 190 191 192 193 194 195 196 197 199 201 203 205 207 209 211 213 213 214 214 213 212 212 213 214 215 218 219 220 220
18 45 293 314 357 10 43 34 16 349 338 343 357 6 357 340 333 322 288 263 138 165 181 234 280 274 306 329 331 325 320 316 292 220 208 206 194 189 191 191 191 191 193 195 192 190 189 189 192 193 191 191 191 190 189 188 189 190 191 192 193 194 195 196 198 199 201 203 205 207 209 211 213 214 215 215 215 215 215 216 216 218 219 219 219 220
6 33 315 325 336 1 68 0 316 293 278 308 33 20 6 353 1 13 327 325 20 236 200 200 236 258 16 8 351 347 342 328 318 270 205 209 202 191 192 192 188 189 192 192 192 193 190 187 189 192 192 191 189 189 189 188 189 190 191 193 193 194 196 197 199 200 201 202 204 206 208 210 212 214 216 217 217 216 216 216 217 218 218 217 218 220
356 48 352 319 288 285 283 274 287 301 309 75 63 28 5 1 16 20 313 316 337 318 292 253 230 230 4 10 357 344 341 335 326 302 201 199 200 193 194 192 186 188 190 188 187 191 192 187 187 189 190 189 189 189 190 190 190 191 192 192 193 195 197 198 199 201 202 203 205 207 208 209 211 213 215 216 217 218 218 217 217 217 216 217 219 219
349 42 7 317 288 301 300 233 81 55 47 43 33 13 359 351 348 322 275 292 312 330 1 327 268 273 343 356 352 336 342 351 343 330 216 192 192 192 193 188 184 189 189 186 185 187 188 186 184 186 188 189 190 190 191 191 191 191 192 193 194 196 197 198 199 201 202 204 206 207 208 209 211 212 214 216 218 219 219 219 219 218 217 218 219 220
337 51 45 5 326 332 0 24 16 25 29 12 334 344 341 338 341 330 318 357 325 44 41 332 262 299 324 336 342 342 352 0 354 350 350 195 194 192 188 183 182 186 184 182 186 186 184 185 184 185 188 188 190 192 193 193 192 192 193 194 195 196 197 197 199 200 202 204 206 207 208 209 210 211 213 216 218 220 220 221 220 219 219 219 220 220
1 84 90 91 60 288 306 3 344 333 340 328 315 328 330 340 346 337 341 3 332 335 357 282 240 304 313 330 345 348 356 1 357 357 6 16 21 166 177 180 181 183 185 184 184 184 183 185 186 186 186 188 191 193 194 194 194 195 195 195 195 195 196 197 198 199 201 203 205 207 209 209 210 211 213 215 217 219 220 221 221 220 220 220 220 220
104 62 108 151 164 218 243 248 261 282 297 304 312 320 324 331 333 327 331 332 300 324 320 247 203 325 318 330 347 353 359 4 360 358 6 18 27 43 64 92 110 105 174 186 185 189 188 187 189 188 187 187 190 193 195 195 196 196 196 196 195 194 195 196 197 198 200 202 204 207 209 210 211 212 213 215 217 218 220 220 221 220 220 220 220 220
73 12 299 200 203 223 239 259 281 292 295 298 305 311 315 318 321 319 309 293 307 331 298 274 355 336 315 325 349 2 7 8 0 353 359 14 28 45 58 60 56 51 45 42 39 30 191 197 199 197 194 193 192 193 194 196 197 198 198 196 194 194 194 194 196 198 200 202 204 207 209 211 212 213 214 216 217 218 219 220 220 220 220 220 220 220
93 298 283 296 299 284 281 300 313 310 302 299 302 305 308 312 311 303 292 289 300 289 265 289 322 317 308 329 353 11 25 29 13 347 346 6 25 38 49 52 50 49 48 45 40 38 34 29 32 77 183 197 201 200 198 198 198 199 199 197 194 193 194 194 195 197 200 202 205 207 209 211 212 214 215 216 217 218 219 220 220 220 220 219 219 220
107 290 311 336 327 319 323 325 320 317 311 307 310 308 303 301 297 294 291 286 283 271 262 281 304 308 315 334 347 2 31 57 44 8 351 3 20 29 34 40 43 41 39 37 36 38 38 35 33 38 55 100 184 199 201 203 203 201 200 198 196 194 193 194 195 196 200 203 206 208 209 210 212 214 215 216 218 219 219 220 220 220 220 220 220 220
106 281 315 6 354 322 323 328 329 328 321 314 317 313 301 293 288 290 292 289 283 276 271 286 309 329 324 326 339 358 14 36 46 35 11 4 14 23 24 26 31 32 29 27 27 27 31 34 33 31 31 30 34 149 183 190 196 202 203 200 198 197 194 193 195 198 201 204 207 208 209 211 212 213 215 216 218 219 219 219 220 220 220 220 220 220
99 267 331 35 12 296 323 342 336 335 327 317 308 291 283 279 277 285 295 300 295 288 286 297 310 299 293 314 343 16 22 25 32 37 30 15 15 21 20 14 16 22 20 19 21 20 20 25 28 31 28 16 11 16 52 189 191 195 200 201 199 197 196 196 196 199 202 204 206 207 209 210 211 213 215 216 217 218 219 219 219 220 220 220 220 219
129 110 8 26 333 298 348 351 339 342 335 309 278 277 297 308 315 311 312 323 324 317 294 267 243 231 268 314 355 25 31 25 22 31 37 29 19 22 22 9 4 10 13 13 16 17 17 16 11 15 22 10 359 7 19 10 280 207 198 199 201 198 196 196 196 198 201 203 204 206 207 208 210 212 214 216 217 218 218 219 219 220 220 220 220 219
147 129 154 183 175 292 336 359 355 340 302 258 269 343 336 330 319 307 312 0 3 352 328 269 280 318 326 338 354 23 56 47 32 39 43 40 29 23 22 12 2 3 8 9 10 11 11 5 356 356 5 4 351 352 16 24 359 305 213 197 198 200 199 196 196 198 200 201 203 204 205 207 208 210 213 215 216 217 217 218 218 219 220 220 220 219
160 142 178 159 144 241 346 25 1 285 253 262 327 329 315 310 309 304 325 26 6 348 341 339 343 345 340 332 330 332 146 127 71 51 41 37 36 27 21 16 6 6 9 6 5 7 4 0 353 345 346 355 353 344 349 17 16 344 294 231 204 201 204 202 200 202 202 202 203 203 203 205 206 208 210 212 213 215 216 217 218 218 219 220 220 219
158 161 182 155 136 304 48 76 231 264 293 305 307 313 313 316 332 340 4 12 351 343 343 339 340 343 336 327 332 332 219 172 102 59 41 29 26 25 22 15 4 4 9 6 2 3 0 354 350 340 334 341 354 348 339 349 13 357 322 292 248 214 208 209 206 208 208 205 204 204 203 204 205 206 208 210 211 213 215 217 218 218 218 219 220 220
155 151 170 205 180 144 191 215 248 304 310 303 305 20 29 358 353 352 324 273 326 337 339 336 338 341 338 337 342 337 310 192 85 45 36 24 15 15 19 14 3 359 2 2 359 2 1 351 346 343 335 337 351 351 336 336 346 351 329 306 282 250 228 224 219 217 215 210 207 206 205 205 205 205 207 208 209 212 214 215 217 217 217 218 219 220
137 152 155 181 188 150 204 248 285 297 285 293 7 16 2 336 310 295 255 238 334 343 340 340 342 340 341 344 342 335 336 42 23 12 21 14 4 4 10 9 3 357 358 359 354 354 360 356 350 348 343 341 348 346 335 334 336 333 323 304 289 273 251 240 235 230 228 220 212 209 207 207 207 206 206 208 209 212 213 214 216 217 217 218 219 220
44 72 117 131 182 161 193 231 239 243 239 341 350 336 335 323 301 287 266 260 339 339 335 341 347 343 343 344 340 340 5 29 346 342 6 1 354 356 357 358 359 356 357 2 358 351 352 353 352 353 350 345 344 341 337 335 330 318 300 289 289 287 274 258 250 244 241 234 223 215 210 209 208 207 207 208 210 212 212 213 214 215 216 218 219 221
19 29 83 130 214 210 227 241 243 249 255 350 342 329 325 315 307 315 291 279 332 327 323 338 348 341 339 341 340 351 22 4 314 320 345 350 354 356 351 351 353 349 350 359 1 356 353 353 353 354 352 346 341 339 337 330 319 306 295 294 297 298 292 283 276 268 256 243 230 221 215 211 209 209 208 210 211 212 212 213 213 214 215 216 218 220
351 20 118 178 213 223 233 248 263 263 269 344 335 323 319 311 288 246 258 286 320 313 310 328 342 334 337 342 340 344 344 314 303 315 331 343 356 355 347 345 344 345 351 355 359 1 0 358 354 351 349 346 342 338 332 321 311 307 306 306 306 306 307 306 299 289 275 255 234 222 217 213 211 209 210 211 212 211 211 212 212 212 213 214 216 218
329 326 188 167 194 224 215 237 272 273 296 358 334 322 322 307 250 228 288 292 288 295 302 311 316 318 326 328 324 320 316 311 316 326 329 336 346 345 340 341 340 343 350 353 357 2 2 359 356 352 349 346 342 337 330 320 313 314 315 313 313 316 320 320 314 301 287 269 243 224 217 215 213 211 210 211 211 210 210 211 211 211 212 213 214 216
168 180 245 203 190 215 216 241 262 261 286 357 344 339 354 308 250 310 330 289 274 289 298 295 292 295 304 309 311 314 315 313 319 326 324 324 335 336 332 337 339 340 347 352 355 357 358 358 356 353 350 347 343 341 338 331 325 326 326 323 325 328 326 324 322 312 294 275 253 231 219 215 213 212 210 210 210 209 209 209 209 210 211 211 212 215
180 161 216 242 188 153 202 227 227 220 237 334 352 319 282 281 282 294 303 289 285 294 292 292 297 297 291 291 296 306 312 311 313 322 323 321 328 334 332 334 339 343 346 349 352 354 355 356 353 351 351 351 351 350 347 343 337 332 328 327 328 330 328 326 325 319 302 280 258 237 223 216 213 212 210 208 207 207 207 207 207 208 209 210 210 212
213 182 179 207 213 207 223 243 257 268 280 286 260 252 270 279 274 246 259 279 286 291 297 301 302 301 298 289 284 290 299 302 307 316 320 316 316 326 330 329 335 342 345 347 351 354 354 352 352 353 352 353 356 355 351 347 342 332 328 330 330 328 327 326 325 321 308 285 261 241 226 217 212 210 209 207 205 204 204 204 205 205 206 208 209 211
209 167 137 152 261 278 266 263 271 288 307 304 291 281 279 279 279 285 290 287 286 292 299 299 295 296 297 293 289 284 278 284 297 305 309 310 308 314 325 325 329 339 344 346 349 351 352 351 353 356 355 354 356 355 351 348 344 334 329 331 331 329 327 325 323 321 313 291 264 243 227 216 211 208 207 205 203 203 203 202 202 203 204 205 207 211
223 164 153 164 260 306 287 262 252 269 293 294 292 294 308 314 308 305 297 290 289 289 292 294 293 293 296 297 297 289 275 273 285 294 302 306 302 305 318 319 322 332 341 344 347 348 351 353 352 352 355 356 354 353 352 350 345 338 333 333 334 332 328 325 323 322 318 301 269 242 224 214 208 205 204 203 202 201 202 202 202 202 203 204 206 210
185 157 182 209 208 229 263 272 281 291 284 276 269 285 319 322 312 306 301 294 290 287 284 284 287 291 299 302 300 295 286 276 274 282 293 298 295 294 302 307 312 322 332 344 350 349 349 352 350 348 353 356 354 352 352 350 347 344 340 336 336 335 331 327 324 321 320 310 277 242 222 212 207 202 200 200 200 198 198 200 201 203 205 207 208 209
145 146 173 194 212 259 277 282 303 315 297 272 263 296 309 310 302 301 302 297 290 287 284 281 282 286 289 292 295 296 291 282 269 267 279 287 289 281 281 296 310 318 327 341 350 348 345 348 349 348 352 356 355 354 354 352 349 347 344 341 340 340 335 328 324 320 320 318 290 244 222 213 206 201 198 198 198 199 199 199 202 205 209 211 212 212
153 179 181 140 220 265 261 252 272 308 292 278 283 298 301 300 297 296 295 292 288 287 286 284 283 280 278 279 284 287 288 285 274 265 269 276 278 276 279 290 304 318 330 343 350 348 345 345 347 350 354 357 356 354 355 355 352 348 348 348 348 346 338 329 324 320 319 322 306 252 223 213 205 200 199 197 195 196 198 201 204 207 210 213 215 216
182 191 178 171 205 226 229 233 228 237 266 277 287 295 296 295 294 292 292 292 290 286 285 283 281 279 275 276 276 275 277 280 275 269 269 269 270 275 281 285 289 310 333 344 348 346 343 342 347 350 353 357 357 353 353 357 357 351 349 350 350 348 341 332 327 320 316 324 324 280 229 216 208 201 198 196 194 192 194 198 204 208 210 212 215 217
Height
767 780 785 784 783 780 776 775 778 777 775 777 779 781 782 782 777 765 762 758 755 770 775 769 771 772 770 768 765 764 765 769 773 775 776 776 778 779 780 782 784 786 786 786 789 791 793 796 799 802 805 807 810 813 815 818 821 823 825 828 829 831 833 834 835 836 837 839 841 842 843 844 845 846 847 847 848 849 850 851 851 852 853 854 854 855
770 786 786 778 776 774 772 771 772 774 775 776 780 783 782 782 776 762 760 758 752 766 773 766 770 770 766 766 763 761 765 769 768 771 773 773 775 776 777 779 780 782 783 784 787 788 791 794 796 799 802 805 807 810 813 815 818 821 823 826 828 830 831 832 833 834 835 836 838 839 841 842 844 845 846 847 847 848 849 850 851 852 853 853 854 855
782 787 780 771 769 769 769 769 771 774 775 777 779 784 785 778 771 761 755 754 753 763 770 766 769 771 764 761 761 759 761 764 761 763 766 767 771 774 775 776 777 780 782 782 784 785 788 791 793 797 799 802 804 807 811 813 816 819 821 824 826 828 829 831 832 833 834 835 836 838 839 841 843 844 845 846 847 848 849 850 851 851 852 853 854 855
792 784 770 765 765 768 771 769 771 775 775 778 779 784 785 774 773 771 759 753 753 755 761 764 769 771 767 765 762 757 756 759 760 760 761 762 765 767 769 771 773 777 779 780 781 782 784 788 790 794 796 799 802 805 808 810 813 816 818 821 823 826 828 829 831 833 834 835 836 838 839 841 842 843 845 846 847 848 849 850 850 851 851 852 853 854
784 771 760 763 766 768 773 771 771 777 779 777 775 778 779 770 770 770 760 755 751 749 749 763 786 787 774 773 770 760 758 760 761 762 764 763 761 763 765 767 769 771 773 777 778 779 781 784 787 790 793 797 799 802 804 807 810 813 816 818 821 823 826 828 829 832 833 835 836 838 839 841 842 843 844 845 846 847 848 849 849 850 851 852 852 853
774 761 756 765 768 767 773 774 770 775 780 778 770 766 766 764 763 761 760 760 765 767 754 764 808 811 780 775 774 764 763 764 763 764 766 765 763 764 766 767 767 767 769 771 774 776 777 780 784 788 791 794 796 798 801 804 807 810 813 816 819 821 824 826 828 830 832 833 834 836 837 838 840 841 842 843 844 845 847 848 848 850 850 851 852 852
765 756 755 763 767 767 772 773 767 767 778 781 765 754 755 757 760 760 762 766 774 778 761 758 796 810 788 779 773 765 767 767 765 765 764 764 764 764 764 764 765 765 766 768 770 773 775 778 781 785 787 790 793 796 798 802 804 807 811 814 817 819 821 824 826 828 830 831 832 833 834 835 836 838 839 840 842 843 845 846 848 849 850 850 851 852
759 757 759 761 765 769 773 773 763 760 775 777 755 747 752 754 759 760 760 768 769 766 765 760 774 797 798 783 769 765 772 773 769 767 764 761 760 760 760 759 760 761 763 765 768 770 772 774 777 780 783 786 789 793 796 800 802 805 808 811 814 817 819 821 824 826 828 829 830 831 833 834 835 836 837 839 840 842 844 846 847 848 849 849 850 851
756 760 762 761 767 770 769 765 755 755 767 763 745 744 749 749 754 755 757 765 763 765 779 771 769 796 802 778 764 768 775 776 770 763 761 758 757 757 757 757 756 757 758 760 764 766 767 770 773 776 779 783 786 790 793 796 799 802 805 809 812 815 817 819 821 824 826 827 828 830 831 832 834 835 836 838 839 841 842 844 846 847 848 848 849 850
755 756 753 756 765 765 759 753 748 753 759 749 741 743 745 747 750 752 758 761 762 774 786 777 772 793 796 776 770 776 777 773 763 756 754 753 753 754 754 755 754 754 755 756 758 761 763 766 769 773 777 781 784 787 791 793 796 799 802 806 809 811 814 816 819 821 823 826 827 828 829 830 832 834 836 837 838 840 841 843 844 845 846 847 848 849
753 748 747 750 754 752 748 746 743 746 747 741 743 749 751 752 750 753 757 759 772 784 779 770 767 777 786 779 772 770 762 753 750 753 752 750 751 752 751 752 752 752 752 753 755 757 760 764 767 772 775 778 782 785 789 791 794 797 799 802 805 807 811 813 816 819 821 824 825 826 828 829 830 832 834 835 836 838 840 841 842 844 845 846 847 848
753 751 752 746 744 745 746 746 741 739 740 743 749 755 762 764 758 761 764 765 785 791 773 763 760 767 782 777 763 753 740 735 740 745 745 745 747 747 747 747 747 748 749 750 753 755 758 762 765 769 772 775 779 782 785 788 791 794 796 799 802 805 808 810 813 816 818 821 823 824 826 827 829 830 832 833 834 836 837 838 840 842 843 845 846 847
760 757 757 747 742 747 754 756 750 741 739 747 753 759 776 784 781 784 784 781 790 784 765 760 759 767 772 759 750 745 732 730 734 733 734 737 739 740 741 743 743 744 746 747 750 752 754 758 760 764 767 771 775 778 781 784 787 790 793 796 799 801 804 807 810 813 816 818 820 822 824 825 827 829 830 831 832 833 835 836 838 839 841 843 844 845
774 764 757 755 752 751 758 768 771 761 750 753 757 763 780 793 801 806 798 792 792 776 757 753 759 770 767 746 738 736 727 724 726 727 729 730 732 736 736 738 741 742 744 745 746 748 750 753 755 758 762 766 770 773 777 780 783 786 790 792 795 797 800 803 806 809 812 815 817 819 821 823 825 826 828 829 830 831 833 834 836 837 838 840 841 842
794 784 767 766 767 759 759 768 774 768 758 754 750 755 770 779 792 801 796 793 790 775 759 754 762 772 764 741 726 722 717 716 718 719 722 724 727 731 734 737 740 741 741 742 743 744 745 747 750 754 758 761 765 769 773 776 779 782 785 788 791 794 797 800 803 806 808 811 814 817 819 821 822 824 825 827 828 830 831 832 833 835 836 837 839 840
801 793 771 767 767 762 766 764 759 760 762 754 745 755 766 763 767 780 783 778 777 779 772 762 763 758 744 728 716 716 717 714 716 716 718 724 725 729 736 738 738 738 739 739 740 741 741 742 746 749 753 757 761 765 768 771 775 778 781 784 787 791 794 797 800 803 805 807 810 813 816 818 819 821 823 825 826 828 829 830 831 833 834 835 837 838
803 793 771 765 764 762 769 764 757 765 770 760 756 764 760 747 752 771 778 768 770 789 782 764 762 752 740 731 717 716 722 717 717 717 717 721 724 729 734 733 735 735 734 735 735 736 737 739 742 744 748 752 756 760 763 766 769 772 776 780 784 788 791 794 797 800 802 805 808 810 812 815 817 819 820 821 823 825 827 828 829 831 832 834 835 837
801 794 776 770 772 767 763 759 756 762 768 772 777 771 754 745 748 763 780 780 784 799 785 764 765 761 758 750 723 716 726 723 718 716 715 717 721 726 728 727 729 729 728 731 732 733 735 736 738 741 743 747 750 754 757 761 765 768 773 776 780 785 788 791 794 797 800 803 805 807 809 812 814 815 817 818 820 822 824 826 827 829 830 831 833 835
797 799 786 775 780 775 761 761 767 764 762 773 778 766 762 772 771 769 782 790 794 803 789 770 767 763 761 752 729 720 722 720 718 714 712 716 718 720 722 722 723 723 726 728 729 731 733 734 736 738 740 743 746 749 753 757 762 766 770 773 777 780 784 787 791 794 797 800 802 804 806 809 811 813 815 816 818 820 821 823 825 826 828 829 831 832
798 806 798 779 779 780 771 778 793 789 772 766 769 767 769 778 779 777 779 780 788 798 794 782 775 765 755 743 732 725 718 714 717 714 710 710 711 712 714 716 718 720 722 722 723 726 727 729 733 735 738 740 743 747 751 755 760 763 767 771 774 777 781 784 788 790 794 796 799 801 804 806 808 810 812 814 816 817 818 820 822 823 825 827 829 830
802 810 809 789 780 785 791 796 802 803 792 784 786 789 787 781 777 778 775 770 778 789 791 791 784 768 752 742 737 733 724 716 714 713 708 703 700 702 705 707 711 713 715 716 718 721 722 725 728 731 735 738 741 745 749 753 756 759 764 767 770 774 777 781 783 786 789 792 795 798 800 803 806 808 810 812 814 815 816 817 819 820 822 824 826 828
810 814 815 807 798 798 803 798 792 794 793 792 797 800 801 797 793 798 796 782 780 785 785 786 783 769 754 745 739 734 727 718 710 706 704 698 695 696 697 699 703 706 709 711 714 717 719 722 725 729 733 736 740 744 746 750 753 756 760 763 767 771 773 776 780 783 786 789 791 794 796 799 802 805 808 810 812 812 813 815 816 818 820 822 823 825
810 815 820 820 810 803 801 793 788 789 784 787 797 800 801 800 802 815 818 803 795 792 784 780 777 766 751 742 740 735 728 721 709 699 693 691 692 693 694 695 698 700 703 705 709 713 716 719 722 727 730 734 737 740 743 747 750 753 756 759 763 766 769 773 776 780 783 786 788 790 793 796 799 802 805 807 809 810 811 813 814 816 818 819 821 822
809 818 825 823 809 798 793 787 786 787 789 798 805 802 803 803 803 808 807 803 803 802 801 798 784 764 747 740 740 737 727 720 711 697 688 686 687 689 692 694 696 699 700 703 706 709 713 716 720 724 728 731 735 737 740 743 746 749 753 756 759 762 765 770 773 777 781 783 785 788 790 793 795 798 801 803 806 807 809 811 813 814 816 817 819 820
817 824 828 829 824 811 801 800 801 800 804 814 814 808 806 804 801 800 797 800 805 805 808 811 799 777 756 745 743 738 728 722 716 703 692 687 686 687 689 691 693 696 699 702 705 708 711 715 717 721 724 727 731 734 737 740 743 746 749 751 755 758 763 766 770 774 777 780 783 786 787 790 792 795 797 800 802 804 807 809 811 812 814 815 817 818
821 827 828 835 841 835 827 829 831 825 819 818 815 810 807 804 804 805 806 811 813 807 806 810 806 789 765 751 748 743 735 730 723 712 701 694 691 689 690 692 694 697 700 701 703 706 709 712 714 716 720 724 727 730 734 737 739 742 745 748 751 755 760 763 767 770 774 777 780 782 784 786 788 790 793 795 798 801 804 806 808 810 812 813 814 815
822 827 828 833 839 840 838 837 834 829 826 822 817 812 809 807 805 806 812 816 813 810 807 802 800 793 774 761 757 752 746 742 736 727 715 707 701 697 697 700 702 704 706 705 706 708 710 711 713 714 716 720 723 727 730 734 736 739 742 745 749 752 756 760 764 767 770 773 776 778 781 783 785 787 789 792 795 798 801 803 805 807 809 810 812 813
826 830 828 829 831 831 831 830 825 824 825 822 818 814 810 807 805 808 814 811 807 813 811 795 792 796 784 769 765 762 756 752 749 745 734 723 716 708 706 709 712 714 715 714 715 716 716 716 716 716 717 718 720 723 727 730 733 736 739 743 746 750 753 757 761 764 767 770 772 774 776 779 782 785 787 789 792 795 798 800 802 804 806 808 809 810
830 835 828 827 830 827 825 824 822 822 822 818 816 815 812 808 807 808 809 804 802 811 808 792 791 796 785 773 770 767 761 758 759 759 749 737 727 719 716 718 721 722 723 724 725 723 722 723 721 721 722 723 724 726 727 729 732 734 738 741 744 747 750 754 757 760 764 766 768 770 773 777 780 782 785 787 789 792 794 797 799 801 803 805 806 807
829 833 828 828 831 829 826 824 821 821 821 819 816 813 810 809 806 803 801 798 797 801 796 788 790 792 782 774 772 768 762 758 758 760 757 748 739 732 730 729 730 731 731 731 730 728 727 727 726 725 725 726 728 729 730 732 733 735 738 740 743 746 748 751 754 757 760 762 765 768 771 774 777 780 782 784 786 789 791 794 796 798 800 801 802 804
828 832 828 828 834 834 828 824 823 823 823 822 819 814 809 807 804 801 798 794 794 796 790 786 791 791 780 772 770 769 764 758 756 761 764 760 751 744 742 741 739 738 738 736 735 732 731 730 729 729 730 730 730 730 730 731 732 735 738 739 742 745 747 749 752 754 756 759 762 766 768 771 774 776 779 781 783 785 788 791 793 795 797 798 800 801
828 832 828 829 839 839 830 828 828 825 823 823 821 815 809 806 804 800 795 792 793 795 791 792 797 792 779 772 771 770 768 765 763 763 766 765 759 754 754 753 748 745 743 741 738 737 735 734 733 732 734 735 734 733 733 733 732 733 735 737 739 740 743 744 746 748 751 754 758 761 764 767 770 772 775 777 779 782 785 788 790 792 794 795 797 799
828 833 833 835 841 840 833 831 831 829 832 830 819 810 807 806 803 800 796 793 793 792 793 795 794 784 777 776 775 773 774 775 771 767 767 768 765 763 764 763 757 751 748 745 742 740 739 738 737 735 736 737 738 736 735 735 736 735 733 734 735 735 735 736 738 741 744 747 751 754 757 761 764 767 770 773 776 778 781 784 786 788 790 792 794 796
828 831 833 835 840 842 836 831 833 840 843 830 811 805 807 808 806 803 800 798 795 792 790 789 786 781 780 779 777 776 777 777 774 770 768 770 771 771 772 770 765 757 752 748 745 742 741 740 739 737 735 736 739 739 736 734 736 738 735 733 733 733 733 734 736 737 739 742 745 747 751 755 758 761 765 768 772 775 777 780 782 785 787 789 792 793
828 831 833 834 838 841 837 836 844 846 833 816 807 805 805 804 803 801 800 800 799 795 792 790 788 787 784 780 777 775 774 774 773 770 768 769 772 774 775 773 769 763 757 753 748 746 745 743 742 738 734 734 737 739 739 734 733 738 741 737 732 731 732 733 735 736 738 739 741 743 746 749 752 756 760 764 768 771 773 776 778 781 784 786 788 789
827 831 833 835 839 841 841 845 847 835 815 807 808 806 803 804 805 807 808 805 802 799 796 794 791 788 785 781 776 771 769 769 769 770 770 769 770 772 773 772 770 766 760 756 753 751 749 747 747 743 738 736 736 739 742 738 731 735 743 744 737 731 731 732 732 734 736 737 738 740 742 744 748 751 755 759 763 766 769 772 774 777 781 783 784 786
824 829 832 836 839 840 843 843 839 829 819 812 809 809 811 813 814 816 817 811 803 801 798 795 792 789 786 782 776 770 766 766 769 773 773 771 770 771 771 771 771 767 760 756 754 754 752 750 748 746 741 737 736 739 743 740 733 732 738 745 742 734 730 731 730 730 732 733 734 736 738 741 744 747 751 755 758 760 764 767 771 774 777 779 781 782
821 825 829 835 838 838 841 842 841 839 831 820 814 813 813 813 812 813 815 812 806 804 801 796 795 793 789 785 780 772 766 768 776 778 776 774 772 770 769 770 770 767 761 756 753 752 752 751 749 746 743 738 737 740 741 738 734 732 735 742 743 735 729 728 728 728 729 730 731 733 735 738 740 743 747 750 752 756 759 763 767 770 773 776 777 778
823 824 827 834 838 838 842 844 843 839 827 819 819 816 812 810 807 806 811 813 810 806 803 799 798 797 794 791 787 779 774 779 784 781 777 776 773 770 769 768 768 767 763 758 754 751 750 750 749 747 746 743 740 740 737 735 735 735 737 741 741 733 727 725 725 725 726 727 729 730 732 734 736 739 742 745 747 751 755 759 762 766 769 772 773 775
828 830 832 836 838 838 840 841 839 830 820 818 821 816 811 807 803 808 818 818 810 807 806 802 799 798 796 794 791 788 787 789 787 780 776 775 773 770 768 766 766 766 763 758 756 753 750 748 747 746 746 745 743 738 736 736 737 738 738 737 734 728 725 724 723 723 723 723 725 727 728 730 732 734 737 740 743 747 751 754 758 761 764 767 770 772
834 835 836 838 839 839 841 842 837 825 818 819 820 814 809 806 805 814 821 816 810 809 806 802 800 798 796 795 794 793 791 789 784 777 774 773 772 771 770 768 767 766 762 758 756 754 751 749 747 746 746 746 744 741 740 740 739 736 734 730 727 725 723 722 721 721 720 720 720 722 724 726 728 730 732 736 739 743 747 750 753 757 760 763 766 769
838 839 839 839 840 839 840 841 838 828 819 818 818 811 808 810 813 816 816 813 811 809 804 801 800 797 795 794 794 793 790 785 780 776 773 772 772 771 771 770 768 766 762 758 755 753 752 750 748 747 746 745 744 743 742 741 737 733 729 726 724 723 721 720 719 718 717 717 717 718 720 722 724 727 729 732 736 739 743 746 749 753 755 759 762 764
839 840 840 838 837 839 841 842 838 830 820 817 817 813 811 814 816 814 813 813 810 807 804 802 799 796 795 793 791 790 788 784 780 777 774 772 770 769 769 769 767 764 760 755 753 752 752 751 750 749 747 745 744 743 741 738 735 731 728 725 723 721 719 717 716 715 714 714 714 714 716 718 720 723 726 729 732 735 739 742 746 749 752 755 757 760
838 839 839 836 834 838 842 838 829 822 819 817 819 818 815 814 813 812 813 812 809 807 805 802 798 795 794 792 790 789 786 784 781 778 775 772 769 768 767 765 763 760 756 754 752 751 750 750 749 748 747 745 743 741 739 736 733 729 727 725 722 720 717 714 713 711 711 710 711 711 712 713 716 719 722 725 728 732 735 738 741 744 748 751 753 756
834 833 834 834 833 833 833 826 818 816 817 817 817 816 814 812 810 811 812 811 809 807 805 803 800 796 793 791 790 788 786 784 781 779 776 773 770 768 767 765 763 759 755 753 752 750 749 748 747 746 745 743 741 739 737 734 731 728 725 724 722 720 717 714 711 709 707 706 707 707 708 710 712 714 718 721 724 727 730 734 737 741 744 747 749 752
830 831 832 833 833 830 825 819 816 816 817 816 815 814 812 810 810 810 810 809 808 806 804 803 800 796 792 790 787 786 785 783 780 779 777 774 771 769 767 765 764 761 757 754 752 750 748 747 746 744 742 740 738 736 734 732 730 727 724 722 720 718 716 713 710 707 705 703 703 703 705 706 708 710 713 716 719 722 725 729 732 736 739 742 744 746
831 832 833 833 835 834 827 818 815 818 818 816 814 812 810 809 809 808 808 808 806 804 803 802 799 795 792 789 785 784 783 781 779 778 776 774 771 769 767 766 764 762 760 756 754 752 749 747 745 743 740 738 735 733 732 730 728 726 723 721 718 716 714 711 709 706 703 700 700 700 701 702 704 706 709 712 715 718 721 725 728 731 734 736 738 740
830 832 833 832 833 834 827 817 815 817 816 813 811 810 809 809 807 805 805 804 803 802 800 799 798 795 792 788 786 783 780 779 779 777 775 773 771 768 767 766 764 763 761 758 756 754 751 748 746 743 740 737 734 732 730 728 726 724 722 719 717 714 712 709 707 704 701 699 697 697 698 698 700 703 706 708 711 714 717 720 724 726 727 729 731 734
826 829 830 830 832 831 824 818 818 817 812 809 809 809 808 807 806 803 802 801 800 799 798 796 795 794 792 789 786 783 780 778 777 775 774 772 770 768 767 765 764 762 760 757 756 754 752 749 746 742 739 736 734 731 729 727 725 723 721 718 716 713 710 708 705 703 700 697 695 695 695 696 697 699 702 704 707 709 712 714 717 719 721 723 725 728
824 826 827 830 832 829 821 817 819 820 815 810 808 808 807 806 805 802 800 799 797 796 795 794 793 791 790 788 786 783 781 778 775 775 773 771 769 767 765 764 763 761 758 755 753 752 750 747 745 741 738 735 733 731 729 727 725 723 720 718 715 712 709 707 704 701 699 697 694 693 692 693 694 695 698 700 703 706 709 711 713 714 716 719 721 723
817 816 819 823 823 819 814 813 816 819 817 811 807 806 805 804 802 801 798 796 794 793 792 791 790 788 787 786 784 782 780 777 774 773 771 770 768 766 763 762 760 759 756 754 751 749 747 746 744 740 737 734 732 730 728 726 724 722 720 717 714 711 709 706 704 701 698 697 694 692 691 692 693 693 694 696 699 702 704 706 709 711 713 715 718 720